KO6TH-15 Weather Reports


time (UTC)temp
C
wind
direction
speed
KPH
gust
KPH
rain 1hr
cm
rain 24hr
cm
rain mn
cm
humidity
%
barometer
mb
20260509024149 23 0 0.0 0.0 0.00 0.00 0.00 69
20260509023119 23 0 0.0 0.0 0.00 0.00 0.00 67
20260509022049 25 0 0.0 0.0 0.00 0.00 0.00 63
20260509021049 25 0 0.0 0.0 0.00 0.00 0.00 59
20260509020019 25 0 0.0 0.0 0.00 0.00 0.00 55
20260509015019 26 0 1.6 0.0 0.00 0.00 0.00 54
20260509013949 26 0 0.0 0.0 0.00 0.00 0.00 50
20260509012919 26 0 1.6 0.0 0.00 0.00 0.00 50
20260509011849 26 0 3.2 0.0 0.00 0.00 0.00 55
20260509010849 26 0 3.2 0.0 0.00 0.00 0.00 56
20260509005819 26 0 4.8 0.0 0.00 0.00 0.00 56
20260509004749 27 0 3.2 0.0 0.00 0.00 0.00 54
20260509003719 27 0 1.6 0.0 0.00 0.00 0.00 54
20260509002649 27 0 8.0 0.0 0.00 0.00 0.00 52
20260509001649 28 0 6.4 0.0 0.00 0.00 0.00 51
20260509000619 29 0 4.8 0.0 0.00 0.00 0.00 47
20260508235549 31 0 4.8 0.0 0.00 0.00 0.00 43
20260508234549 30 0 3.2 0.0 0.00 0.00 0.00 47
20260508233549 30 0 6.4 0.0 0.00 0.00 0.00 47
20260508232549 30 0 6.4 0.0 0.00 0.00 0.00 48
20260508231519 30 0 1.6 0.0 0.00 0.00 0.00 49
20260508230520 30 0 4.8 0.0 0.00 0.00 0.00 47
20260508225449 31 0 3.2 0.0 0.00 0.00 0.00 47
20260508224419 31 0 4.8 0.0 0.00 0.00 0.00 49
20260508223419 30 0 6.4 0.0 0.00 0.00 0.00 51
20260508222419 30 0 3.2 0.0 0.00 0.00 0.00 52
20260508221349 31 0 3.2 0.0 0.00 0.00 0.00 48
20260508220349 30 0 8.0 0.0 0.00 0.00 0.00 51
20260508215349 31 0 1.6 0.0 0.00 0.00 0.00 50
20260508214319 29 0 3.2 0.0 0.00 0.00 0.00 53
20260508213319 30 0 1.6 0.0 0.00 0.00 0.00 53
20260508212249 30 0 3.2 0.0 0.00 0.00 0.00 53
20260508211219 29 0 3.2 0.0 0.00 0.00 0.00 53
20260508210219 29 0 3.2 0.0 0.00 0.00 0.00 53
20260508205149 28 0 6.4 0.0 0.00 0.00 0.00 55
20260508204149 28 0 3.2 0.0 0.00 0.00 0.00 54
20260508203119 28 0 6.4 0.0 0.00 0.00 0.00 54
20260508202049 27 0 3.2 0.0 0.00 0.00 0.00 55
20260508201049 27 0 4.8 0.0 0.00 0.00 0.00 54
20260508200049 27 0 6.4 0.0 0.00 0.00 0.00 54
20260508195049 27 0 3.2 0.0 0.00 0.00 0.00 55
20260508194019 26 0 4.8 0.0 0.00 0.00 0.00 58
20260508193019 27 0 6.4 0.0 0.00 0.00 0.00 57
20260508191949 27 0 3.2 0.0 0.00 0.00 0.00 57
20260508190949 25 0 3.2 0.0 0.00 0.00 0.00 62
20260508185919 25 0 6.4 0.0 0.00 0.00 0.00 61
20260508184849 26 0 8.0 0.0 0.00 0.00 0.00 61
20260508183819 25 0 6.4 0.0 0.00 0.00 0.00 61
20260508182749 25 0 8.0 0.0 0.00 0.00 0.00 61
20260508181719 25 0 6.4 0.0 0.00 0.00 0.00 62
20260508180649 25 0 1.6 0.0 0.00 0.00 0.00 63
20260508175619 24 0 6.4 0.0 0.00 0.00 0.00 62
20260508174549 23 0 1.6 0.0 0.00 0.00 0.00 63
20260508173519 22 0 3.2 0.0 0.00 0.00 0.00 70
20260508172519 22 0 3.2 0.0 0.00 0.00 0.00 70
20260508171449 21 0 3.2 0.0 0.00 0.00 0.00 71
20260508170419 21 0 4.8 0.0 0.00 0.00 0.00 70
20260508165419 22 0 4.8 0.0 0.00 0.00 0.00 67
20260508164349 22 0 0.0 0.0 0.00 0.00 0.00 60
20260508163319 23 0 3.2 0.0 0.00 0.00 0.00 59
20260508162319 22 0 1.6 0.0 0.00 0.00 0.00 59
20260508161249 20 0 0.0 0.0 0.00 0.00 0.00 65
20260508160219 19 0 1.6 0.0 0.00 0.00 0.00 69
20260508155219 18 0 0.0 0.0 0.00 0.00 0.00 75
20260508154219 17 0 3.2 0.0 0.00 0.00 0.00 78
20260508153149 17 0 1.6 0.0 0.00 0.00 0.00 81
20260508152119 16 0 0.0 0.0 0.00 0.00 0.00 86
20260508151049 16 0 0.0 0.0 0.00 0.00 0.00 94
20260508150019 15 0 3.2 0.0 0.00 0.00 0.00 99
20260508144949 13 0 0.0 0.0 0.00 0.00 0.00 99
20260508143949 12 0 0.0 0.0 0.00 0.00 0.00 99
20260508142919 11 0 0.0 0.0 0.00 0.00 0.00 99
20260508141919 11 0 0.0 0.0 0.00 0.00 0.00 99
20260508140849 10 0 0.0 0.0 0.00 0.00 0.00 99
20260508135819 10 0 0.0 0.0 0.00 0.00 0.00 99
20260508134819 10 0 0.0 0.0 0.00 0.00 0.00 99
20260508133749 9 0 0.0 0.0 0.00 0.00 0.00 99
20260508132749 8 0 0.0 0.0 0.00 0.00 0.00 99
20260508131719 9 0 0.0 0.0 0.00 0.00 0.00 99
20260508130649 9 0 0.0 0.0 0.00 0.00 0.00 99
20260508125619 9 0 0.0 0.0 0.00 0.00 0.00 99
20260508124549 9 0 0.0 0.0 0.00 0.00 0.00 99
20260508123519 9 0 0.0 0.0 0.00 0.00 0.00 99
20260508122449 10 0 0.0 0.0 0.00 0.00 0.00 99
20260508121419 10 0 0.0 0.0 0.00 0.00 0.00 99
20260508120349 10 0 0.0 0.0 0.00 0.00 0.00 99
20260508115319 10 0 0.0 0.0 0.00 0.00 0.00 99
20260508114319 10 0 0.0 0.0 0.00 0.00 0.00 99
20260508113249 10 0 0.0 0.0 0.00 0.00 0.00 99
20260508112249 10 0 0.0 0.0 0.00 0.00 0.00 99
20260508111249 10 0 0.0 0.0 0.00 0.00 0.00 99
20260508110219 11 0 0.0 0.0 0.00 0.00 0.00 99
20260508105219 11 0 0.0 0.0 0.00 0.00 0.00 99
20260508104219 11 0 0.0 0.0 0.00 0.00 0.00 99
20260508103149 11 0 0.0 0.0 0.00 0.00 0.00 99
20260508102119 11 0 0.0 0.0 0.00 0.00 0.00 99
20260508101049 11 0 0.0 0.0 0.00 0.00 0.00 99
20260508100019 11 0 0.0 0.0 0.00 0.00 0.00 99
20260508094949 11 0 0.0 0.0 0.00 0.00 0.00 99
20260508093919 12 0 0.0 0.0 0.00 0.00 0.00 99
20260508092919 12 0 0.0 0.0 0.00 0.00 0.00 99
20260508091919 12 0 0.0 0.0 0.00 0.00 0.00 99
20260508090919 12 0 0.0 0.0 0.00 0.00 0.00 99
20260508085849 12 0 0.0 0.0 0.00 0.00 0.00 99
20260508084849 12 0 0.0 0.0 0.00 0.00 0.00 99
20260508083819 12 0 0.0 0.0 0.00 0.00 0.00 99
20260508082749 12 0 0.0 0.0 0.00 0.00 0.00 99
20260508081719 12 0 0.0 0.0 0.00 0.00 0.00 99
20260508080719 12 0 0.0 0.0 0.00 0.00 0.00 99
20260508075719 13 0 0.0 0.0 0.00 0.00 0.00 99
20260508074719 13 0 0.0 0.0 0.00 0.00 0.00 99
20260508073649 13 0 0.0 0.0 0.00 0.00 0.00 99
20260508072619 13 0 0.0 0.0 0.00 0.00 0.00 99
20260508071619 13 0 0.0 0.0 0.00 0.00 0.00 99
20260508070549 13 0 0.0 0.0 0.00 0.00 0.00 99
20260508065519 13 0 0.0 0.0 0.00 0.00 0.00 99
20260508064449 14 0 0.0 0.0 0.00 0.00 0.00 99
20260508063419 14 0 0.0 0.0 0.00 0.00 0.00 99
20260508062419 14 0 0.0 0.0 0.00 0.00 0.00 99
20260508061419 14 0 0.0 0.0 0.00 0.00 0.00 98
20260508060419 14 0 0.0 0.0 0.00 0.00 0.00 98
20260508055349 15 0 0.0 0.0 0.00 0.00 0.00 99
20260508054349 15 0 0.0 0.0 0.00 0.00 0.00 99
20260508053319 15 0 0.0 0.0 0.00 0.00 0.00 98
20260508052249 15 0 0.0 0.0 0.00 0.00 0.00 97
20260508051249 16 0 0.0 0.0 0.00 0.00 0.00 97
20260508050219 16 0 0.0 0.0 0.00 0.00 0.00 94
20260508045149 16 0 0.0 0.0 0.00 0.00 0.00 94
20260508044149 16 0 0.0 0.0 0.00 0.00 0.00 96
20260508043119 17 0 0.0 0.0 0.00 0.00 0.00 91
20260508042119 17 0 0.0 0.0 0.00 0.00 0.00 92
20260508041049 17 0 0.0 0.0 0.00 0.00 0.00 89
20260508040019 18 0 0.0 0.0 0.00 0.00 0.00 89
20260508034949 18 0 0.0 0.0 0.00 0.00 0.00 86
20260508033919 19 0 0.0 0.0 0.00 0.00 0.00 84
20260508032849 20 0 0.0 0.0 0.00 0.00 0.00 84
20260508031849 20 0 0.0 0.0 0.00 0.00 0.00 81
20260508030849 21 0 0.0 0.0 0.00 0.00 0.00 78
20260508025819 22 0 0.0 0.0 0.00 0.00 0.00 78
20260508024819 22 0 0.0 0.0 0.00 0.00 0.00 75